LKKB Weather Reports


time (UTC)temp
C
wind
direction
speed
KPH
gust
KPH
rain 1hr
cm
rain 24hr
cm
rain mn
cm
humidity
%
barometer
mb
20260508003103 8 310 11.3 0.0 0.00 0.00 0.00 87 1016.0
20260508001851 8 300 11.3 0.0 0.00 0.00 0.00 87
20260507233103 10 300 8.0 0.0 0.00 0.00 0.00 87 1016.0
20260507232103 10 290 9.7 0.0 0.00 0.00 0.00 87 1016.0
20260507231851 10 340 11.3 0.0 0.00 0.00 0.00 87
20260507231003 10 300 9.7 0.0 0.00 0.00 0.00 87 1016.0
20260507230603 10 320 9.7 0.0 0.00 0.00 0.00 87 1016.0
20260507225402 10 330 11.3 0.0 0.00 0.00 0.00 87 1016.0
20260507223102 10 320 9.7 0.0 0.00 0.00 0.00 87 1016.0
20260507222602 10 320 9.7 0.0 0.00 0.00 0.00 87 1016.0
20260507222153 10 320 11.3 0.0 0.00 0.00 0.00 87
20260507213103 10 320 11.3 0.0 0.00 0.00 0.00 87 1016.0
20260507211853 10 320 14.5 0.0 0.00 0.00 0.00 87
20260507210103 10 320 12.9 0.0 0.00 0.00 0.00 87 1016.0
20260507203103 11 320 12.9 0.0 0.00 0.00 0.00 87 1015.0
20260507201854 11 340 11.3 0.0 0.00 0.00 0.00 87
20260507200212 11 340 11.3 0.0 0.00 0.00 0.00 87 1015.0
20260507193102 11 310 12.9 0.0 0.00 0.00 0.00 87 1014.0
20260507191954 12 310 14.5 0.0 0.00 0.00 0.00 81
20260507183102 12 280 11.3 0.0 0.00 0.00 0.00 81 1014.0
20260507181851 12 280 14.5 0.0 0.00 0.00 0.00 76
20260507173102 13 280 14.5 0.0 0.00 0.00 0.00 67 1013.0
20260507171851 13 250 19.3 0.0 0.00 0.00 0.00 67
20260507163103 13 270 19.3 0.0 0.00 0.00 0.00 62 1013.0
20260507162154 15 280 22.5 0.0 0.00 0.00 0.00 58
20260507160104 15 280 22.5 0.0 0.00 0.00 0.00 58 1012.0
20260507153355 15 260 27.4 0.0 0.00 0.00 0.00 58 1012.0
20260507153103 15 260 27.4 0.0 0.00 0.00 0.00 58 1012.0
20260507151852 16 250 22.5 0.0 0.00 0.00 0.00 55
20260507143103 17 240 22.5 0.0 0.00 0.00 0.00 51 1012.0
20260507141854 17 220 22.5 0.0 0.00 0.00 0.00 51
20260507133102 16 210 22.5 0.0 0.00 0.00 0.00 55 1012.0
20260507131954 16 230 25.7 0.0 0.00 0.00 0.00 55
20260507130103 16 220 24.1 0.0 0.00 0.00 0.00 55 1012.0
20260507123102 16 210 22.5 0.0 0.00 0.00 0.00 55 1012.0
20260507121853 16 220 25.7 0.0 0.00 0.00 0.00 51
20260507120103 15 220 27.4 0.0 0.00 0.00 0.00 58 1012.0
20260507113103 16 220 25.7 0.0 0.00 0.00 0.00 55 1011.0
20260507111852 16 220 25.7 0.0 0.00 0.00 0.00 55
20260507110204 17 230 24.1 0.0 0.00 0.00 0.00 55 1011.0
20260507103102 16 210 20.9 0.0 0.00 0.00 0.00 59 1011.0
20260507102053 16 240 22.5 0.0 0.00 0.00 0.00 59
20260507100103 16 230 24.1 0.0 0.00 0.00 0.00 59 1011.0
20260507093103 15 240 20.9 0.0 0.00 0.00 0.00 62 1011.0
20260507091851 16 230 25.7 0.0 0.00 0.00 0.00 63
20260507083103 16 230 27.4 0.0 0.00 0.00 0.00 67 1010.0
20260507081851 13 210 25.7 0.0 0.00 0.00 0.00 71
20260507073103 13 220 24.1 0.0 0.00 0.00 0.00 71 1010.0
20260507071852 13 210 19.3 0.0 0.00 0.00 0.00 76
20260507063103 13 210 16.1 0.0 0.00 0.00 0.00 82 1009.0
20260507061852 12 210 19.3 0.0 0.00 0.00 0.00 82
20260507060104 12 210 16.1 0.0 0.00 0.00 0.00 87 1009.0
20260507053102 12 200 19.3 0.0 0.00 0.00 0.00 87 1009.0
20260507051851 12 190 14.5 0.0 0.00 0.00 0.00 87
20260507050104 12 190 12.9 0.0 0.00 0.00 0.00 87 1009.0
20260507043103 11 200 12.9 0.0 0.00 0.00 0.00 93 1008.0
20260507042056 11 210 19.3 0.0 0.00 0.00 0.00 93
20260507033103 11 200 14.5 0.0 0.00 0.00 0.00 93 1008.0
20260507031852 11 210 14.5 0.0 0.00 0.00 0.00 93
20260507030210 11 210 12.9 0.0 0.00 0.00 0.00 93 1008.0
20260507023103 12 210 14.5 0.0 0.00 0.00 0.00 93 1008.0
20260507021902 12 210 12.9 0.0 0.00 0.00 0.00 93 1008.0
20260507021850 12 200 14.5 0.0 0.00 0.00 0.00 93
20260507020511 12 200 14.5 0.0 0.00 0.00 0.00 93 1008.0
20260507020210 12 200 14.5 0.0 0.00 0.00 0.00 93 1008.0
20260507015803 12 200 16.1 0.0 0.00 0.00 0.00 100 1007.0
20260507014703 12 200 16.1 0.0 0.00 0.00 0.00 100 1007.0
20260507014303 12 200 16.1 0.0 0.00 0.00 0.00 100 1007.0
20260507013102 12 180 9.7 0.0 0.00 0.00 0.00 100 1007.0
20260507011951 12 220 14.5 0.0 0.00 0.00 0.00 93
20260507010212 12 220 12.9 0.0 0.00 0.00 0.00 93 1007.0